GALAXY 25 (TELSTAR 5)

导读 | 豆包AI

GALAXY 25(曾用名TELSTAR 5、Intelsat Americas 5)是由美国于1997年5月24日发射的通信卫星,隶属于国际通信卫星组织Intelsat的Galaxy卫星系列。作为一颗商用通信卫星,它主要承担北美地区的电视广播、通信传输等服务,支撑卫星电视信号分发和商业通信网络,在服役期间为跨区域通信连接提供了稳定支持,完成了既定通信服务使命。

Basic Information
目录编号:
24812
目录名称:
GALAXY 25 (TELSTAR 5)
国际标识:
1997-026A
轨道中心:
EARTH
卫星名称:
GALAXY 25 (TELSTAR 5)
卫星全名:
--
卫星状态:
在轨 (已飞行10521 天)
发射日期:
1997-05-24 UTC
国别 :
美国 (US)
星等 :
--
Orbit Information
数据来源 国际轨道数据 AOE轨道数据
星历时间 2026-03-13T17:04:46+0800
18小时前
查看轨道信息
2026-03-13T15:00:00+0800
20小时前
查看轨道信息
半长轴 42498.575km 42498.517km
偏心率 0.0003908 0.0003938
轨道倾角 7.153° 7.152°
近地点辐角 4.592° 5.466°
升交点赤经 68.934° 68.935°
平近点角 197.912° 166.133°
近地点 36103.829km 36103.644km
远地点 36137.047km 36137.116km
周期 1453.186分钟 1453.183分钟
每日圈数 0.990926 0.990928
Detailed Information
使用方式:
暂无
2D Orbit Map
3D Orbit Map
Orbit Altitude Analysis Chart
Orbit Inclination Analysis Chart
Orbit Comprehensive Analysis Chart
View Comprehensive Chart